Location: ČR
(50.0000°N, 15.0000°E)
Time: 16:49:54
(UTC+00:00)

Envisat - Pass Details

Date: 03 October 2021
Orbit: 764 x 766 km, 98.2° (Epoch: 22 October)

Event Time Altitude Azimuth Distance (km) Brightness Sun altitude
Rises 03:57:33 0° 17° (NNE) 3,243 6.6 -11.3°
Reaches altitude 10° 03:59:55 10° 21° (NNE) 2,312 5.9 -11.0°
Maximum altitude 04:04:56 57° 100° (E) 901 3.8 -10.2°
Drops below altitude 10° 04:09:55 10° 179° (S) 2,295 5.4 -9.4°
Sets 04:12:15 0° 184° (S) 3,216 6.1 -9.0°
